Waarnemingen

Advertentie
Mijn weer
Bilbao/Aeropuerto, Spanje (8025): temperatuur & dauwpunt: 16.02.2018 04:00:00 - 22.02.2018 04:00:00 (CET)Bilbao/Aeropuerto, Spanje (8025): windsnelheid: 16.02.2018 04:00:00 - 22.02.2018 04:00:00 (CET)Bilbao/Aeropuerto, Spanje (8025): windrichting: 16.02.2018 04:00:00 - 22.02.2018 04:00:00 (CET)Bilbao/Aeropuerto, Spanje (8025): luchtdruk: 16.02.2018 04:00:00 - 22.02.2018 04:00:00 (CET)Bilbao/Aeropuerto, Spanje (8025): zicht: 16.02.2018 04:00:00 - 22.02.2018 04:00:00 (CET)
Datum & Tijd tt [°C] td [°C] ff [km/u] ff [kn] dd ppp [hPa] vv [km]
22.02.2018 04:00:00 - - - - - - -
22.02.2018 03:00:00 6,1 1,2 9 5 NO 1016,4 -
22.02.2018 02:00:00 6,5 1,6 11 6 ONO 1016,7 -
22.02.2018 01:00:00 6,4 1,9 8 4 NNW 1016,9 -
22.02.2018 00:00:00 6,0 1,9 8 4 WNW 1017,4 -
21.02.2018 23:00:00 6,5 0,5 9 5 NNW 1018,0 -
21.02.2018 22:00:00 6,5 1,0 9 5 N 1018,5 15
21.02.2018 21:00:00 5,8 1,7 8 4 NNW 1018,5 -
21.02.2018 20:00:00 6,0 1,5 8 4 N 1018,4 -
21.02.2018 19:00:00 6,7 1,4 11 6 N 1018,0 15
21.02.2018 18:00:00 7,8 1,0 16 9 N 1017,8 -
21.02.2018 17:00:00 9,0 0,5 13 7 NNO 1017,6 -
21.02.2018 16:00:00 9,4 0,7 16 9 NO 1017,5 25
21.02.2018 15:00:00 9,3 0,8 22 12 NNO 1017,7 -
21.02.2018 14:00:00 8,4 0,9 28 15 NO 1017,9 -
21.02.2018 13:00:00 8,8 2,8 26 14 NO 1018,4 20
21.02.2018 12:00:00 7,9 3,9 13 7 NNO 1019,2 -
21.02.2018 11:00:00 7,6 3,9 21 11 NO 1019,3 -
21.02.2018 10:00:00 7,4 4,8 13 7 NNW 1019,1 20
21.02.2018 09:00:00 6,6 4,1 26 14 N 1019,4 -
21.02.2018 08:00:00 8,1 3,0 18 10 N 1018,6 -
21.02.2018 07:00:00 7,8 3,3 13 7 NNW 1018,8 15
21.02.2018 06:00:00 7,4 2,8 22 12 N 1019,0 -
21.02.2018 05:00:00 9,0 2,5 21 11 N 1019,4 -
21.02.2018 04:00:00 9,1 2,9 24 13 N 1019,4 -
21.02.2018 03:00:00 9,0 6,4 31 17 N 1019,5 -
21.02.2018 02:00:00 9,6 7,3 22 12 NNW 1019,1 -
21.02.2018 01:00:00 10,1 8,0 21 11 N 1019,9 -
21.02.2018 00:00:00 9,7 8,5 11 6 NNW 1020,3 -
20.02.2018 23:00:00 10,7 8,1 13 7 NNW 1020,9 -
20.02.2018 22:00:00 10,8 8,0 13 7 NNW 1021,6 12
20.02.2018 21:00:00 10,9 8,3 16 9 NNW 1021,9 -
20.02.2018 20:00:00 11,1 8,3 18 10 NNW 1022,3 -
20.02.2018 19:00:00 11,1 8,3 21 11 NNW 1022,4 12
20.02.2018 18:00:00 11,3 8,2 22 12 NW 1022,4 -
20.02.2018 17:00:00 11,7 8,5 26 14 NNW 1022,2 -
20.02.2018 16:00:00 12,0 8,4 22 12 N 1021,9 12
20.02.2018 15:00:00 12,1 9,4 24 13 NNW 1022,2 -
20.02.2018 14:00:00 12,0 9,7 29 16 NW 1022,6 -
20.02.2018 13:00:00 12,3 9,2 26 14 NW 1022,8 12
20.02.2018 12:00:00 11,7 9,3 22 12 NW 1022,9 -
20.02.2018 11:00:00 11,4 9,3 18 10 NNW 1023,2 -
20.02.2018 10:00:00 11,1 9,2 21 11 NW 1022,8 8
20.02.2018 09:00:00 11,1 9,0 21 11 NW 1022,4 -
20.02.2018 08:00:00 10,9 8,8 21 11 NW 1022,1 -
20.02.2018 07:00:00 10,8 8,7 16 9 NW 1021,8 8
20.02.2018 06:00:00 10,9 9,0 22 12 NNW 1021,8 -
20.02.2018 05:00:00 10,6 9,5 18 10 NW 1021,6 -
20.02.2018 04:00:00 10,8 9,4 18 10 NW 1021,5 -
20.02.2018 03:00:00 10,9 9,6 18 10 NNW 1021,6 -
20.02.2018 02:00:00 11,1 9,8 26 14 NNW 1021,5 -
20.02.2018 01:00:00 11,0 9,9 22 12 NNW 1021,4 -
20.02.2018 00:00:00 11,2 10,4 16 9 NNW 1021,3 -
19.02.2018 23:00:00 11,4 10,1 18 10 N 1021,5 -
19.02.2018 22:00:00 11,4 10,3 24 13 NNW 1021,5 5
19.02.2018 21:00:00 11,4 10,3 18 10 NNW 1021,2 -
19.02.2018 20:00:00 11,3 10,5 16 9 NW 1021,1 -
19.02.2018 19:00:00 11,4 10,5 15 8 NW 1021,2 5
19.02.2018 18:00:00 11,3 10,5 18 10 NW 1021,0 -
19.02.2018 17:00:00 11,7 10,9 21 11 NW 1021,0 -
19.02.2018 16:00:00 11,7 10,9 18 10 NW 1021,0 8
19.02.2018 15:00:00 11,9 11,0 22 12 NW 1021,1 -
19.02.2018 14:00:00 11,6 10,7 24 13 NW 1021,4 -
19.02.2018 13:00:00 11,7 11,1 21 11 NW 1021,7 2,2
19.02.2018 12:00:00 11,7 11,0 18 10 WNW 1021,8 -
19.02.2018 11:00:00 11,3 10,5 16 9 NW 1021,6 -
19.02.2018 10:00:00 11,4 10,6 16 9 NW 1021,5 10
19.02.2018 09:00:00 11,0 10,4 13 7 WNW 1021,6 -
19.02.2018 08:00:00 10,6 10,0 15 8 NW 1021,4 -
19.02.2018 07:00:00 10,4 9,8 15 8 NW 1021,2 4,0
19.02.2018 06:00:00 9,8 9,2 8 4 W 1021,2 -
19.02.2018 05:00:00 9,9 9,1 13 7 NW 1021,4 -
19.02.2018 04:00:00 10,0 9,2 13 7 WNW 1021,7 -
19.02.2018 03:00:00 10,3 9,3 16 9 WNW 1022,1 -
19.02.2018 02:00:00 10,5 9,3 11 6 NW 1022,6 -
19.02.2018 01:00:00 10,4 9,1 9 5 WNW 1023,1 -
19.02.2018 00:00:00 10,6 9,2 9 5 WNW 1023,4 -
18.02.2018 23:00:00 10,1 9,3 5 3 WNW 1023,8 -
18.02.2018 22:00:00 10,2 9,4 8 4 W 1024,3 15
18.02.2018 21:00:00 10,5 9,4 13 7 WNW 1024,7 -
18.02.2018 20:00:00 10,6 9,5 16 9 WNW 1024,9 -
18.02.2018 19:00:00 10,4 9,4 15 8 WNW 1025,0 7
18.02.2018 18:00:00 10,7 8,6 13 7 WNW 1025,0 -
18.02.2018 17:00:00 11,1 7,9 16 9 NW 1025,3 -
18.02.2018 16:00:00 10,5 7,5 5 3 ZO 1025,6 25
18.02.2018 15:00:00 10,6 6,0 0 0 N 1025,8 -
18.02.2018 14:00:00 10,6 5,6 4 2 N 1026,5 -
18.02.2018 13:00:00 10,2 5,5 8 4 WZW 1027,1 20
18.02.2018 12:00:00 9,1 6,7 4 2 ZZW 1027,9 -
18.02.2018 11:00:00 8,0 6,8 2 1 OZO 1028,0 -
18.02.2018 10:00:00 6,7 6,1 5 3 O 1027,7 20
18.02.2018 09:00:00 5,7 5,4 8 4 O 1028,1 -
18.02.2018 08:00:00 5,0 4,7 9 5 OZO 1028,0 -
18.02.2018 07:00:00 5,0 4,7 8 4 O 1028,1 15
18.02.2018 06:00:00 5,4 4,8 9 5 O 1028,3 -
18.02.2018 05:00:00 5,9 5,4 5 3 OZO 1028,6 -
18.02.2018 04:00:00 6,2 5,8 8 4 O 1029,0 -
18.02.2018 03:00:00 6,4 6,0 8 4 O 1029,7 -
18.02.2018 02:00:00 6,3 5,7 5 3 ZO 1029,7 -
18.02.2018 01:00:00 6,2 5,6 8 4 O 1029,8 -
18.02.2018 00:00:00 6,6 6,0 5 3 O 1029,9 -
17.02.2018 23:00:00 6,7 5,8 8 4 O 1029,8 -
17.02.2018 22:00:00 7,4 6,2 2 1 NO 1029,4 15
17.02.2018 21:00:00 8,1 6,6 8 4 ONO 1029,1 -
17.02.2018 20:00:00 9,1 5,8 0 0 N 1029,1 -
17.02.2018 19:00:00 10,1 5,5 8 4 NNW 1028,9 25
17.02.2018 18:00:00 10,6 5,7 13 7 NNW 1028,5 -
17.02.2018 17:00:00 11,8 5,9 18 10 NNW 1028,1 -
17.02.2018 16:00:00 12,1 6,7 21 11 NNW 1028,1 20
17.02.2018 15:00:00 12,4 6,9 21 11 NNW 1028,1 -
17.02.2018 14:00:00 12,3 6,0 28 15 NW 1028,0 -
17.02.2018 13:00:00 13,0 8,3 22 12 WNW 1028,3 20
17.02.2018 12:00:00 11,8 8,6 22 12 NW 1028,2 -
17.02.2018 11:00:00 11,4 8,4 15 8 WNW 1027,8 -
17.02.2018 10:00:00 9,8 8,4 0 0 N 1027,3 20
17.02.2018 09:00:00 9,2 8,1 8 4 WZW 1026,9 -
17.02.2018 08:00:00 9,0 7,8 8 4 NW 1026,5 -
17.02.2018 07:00:00 9,5 7,1 0 0 N 1025,8 15
17.02.2018 06:00:00 9,7 7,2 11 6 WNW 1025,6 -
17.02.2018 05:00:00 10,0 8,1 21 11 NW 1025,2 -
17.02.2018 04:00:00 10,3 8,7 22 12 NW 1024,7 -
17.02.2018 03:00:00 11,1 9,7 26 14 NW 1024,3 -
17.02.2018 02:00:00 11,8 11,0 24 13 NW 1023,5 -
17.02.2018 01:00:00 11,7 11,2 4 2 NW 1022,5 -
17.02.2018 00:00:00 11,8 11,3 4 2 WNW 1021,7 -
16.02.2018 23:00:00 11,8 11,2 9 5 NW 1021,3 -
16.02.2018 22:00:00 11,8 11,5 9 5 WNW 1020,9 1,8
16.02.2018 21:00:00 11,9 11,4 8 4 W 1020,5 -
16.02.2018 20:00:00 12,0 11,4 9 5 W 1020,2 -
16.02.2018 19:00:00 13,2 11,4 9 5 WNW 1019,8 15
16.02.2018 18:00:00 15,2 12,0 9 5 WNW 1019,3 -
16.02.2018 17:00:00 15,8 12,6 5 3 NW 1019,2 -
16.02.2018 16:00:00 15,4 12,0 13 7 W 1019,5 20
16.02.2018 15:00:00 16,8 11,9 18 10 WNW 1019,8 -
16.02.2018 14:00:00 17,2 12,9 15 8 WNW 1020,7 -
16.02.2018 13:00:00 18,1 11,9 4 2 NNO 1021,7 20
16.02.2018 12:00:00 16,8 11,3 5 3 NO 1022,4 -
16.02.2018 11:00:00 15,1 11,6 0 0 N 1022,9 -
16.02.2018 10:00:00 13,0 10,7 5 3 OZO 1022,8 20
16.02.2018 09:00:00 11,8 9,9 0 0 N 1022,7 -
16.02.2018 08:00:00 11,5 9,9 5 3 OZO 1022,5 -
16.02.2018 07:00:00 10,9 9,8 4 2 O 1022,5 15
16.02.2018 06:00:00 10,4 9,3 5 3 ZO 1022,6 -
16.02.2018 05:00:00 10,5 9,6 8 4 O 1022,7 -
16.02.2018 04:00:00 10,7 9,6 4 2 O 1023,1 -

tt = temperatuur
td = dauwpunt
ff = windsnelheid
dd = windrichting
ppp = luchtdruk
vv = zicht

Weerstations in de omgeving